TimeMST,TemperatureF,Dew PointF,Humidity,Sea Level PressureIn,VisibilityMPH,Wind Direction,Wind SpeedMPH,Gust SpeedMPH,PrecipitationIn,Events,Conditions,WindDirDegrees,DateUTC
12:53 AM,12.0,5.0,73,30.42,10.0,Calm,Calm,-,N/A,,Clear,0,2012-12-29 07:53:00
1:53 AM,12.0,3.9,70,30.38,10.0,ENE,8.1,-,N/A,,Clear,70,2012-12-29 08:53:00
2:53 AM,9.0,1.9,73,30.40,10.0,ENE,4.6,-,N/A,,Clear,70,2012-12-29 09:53:00
3:53 AM,10.0,1.9,70,30.40,10.0,ESE,3.5,-,N/A,,Clear,110,2012-12-29 10:53:00
4:53 AM,8.1,1.0,73,30.43,10.0,Calm,Calm,-,N/A,,Clear,0,2012-12-29 11:53:00
5:53 AM,6.1,-2.0,69,30.46,10.0,East,5.8,-,N/A,,Clear,90,2012-12-29 12:53:00
6:53 AM,3.9,-2.9,73,30.52,10.0,Calm,Calm,-,N/A,,Clear,0,2012-12-29 13:53:00
7:53 AM,3.9,-4.0,70,30.56,10.0,Calm,Calm,-,N/A,,Clear,0,2012-12-29 14:53:00
8:53 AM,17.1,6.1,62,30.45,10.0,ENE,8.1,-,N/A,,Clear,60,2012-12-29 15:53:00
9:53 AM,23.0,10.9,60,30.47,10.0,ENE,10.4,-,N/A,,Clear,70,2012-12-29 16:53:00
10:53 AM,28.0,10.9,49,30.41,10.0,Variable,3.5,-,N/A,,Clear,0,2012-12-29 17:53:00
11:53 AM,32.0,10.0,40,30.35,10.0,East,3.5,-,N/A,,Clear,90,2012-12-29 18:53:00
12:53 PM,36.0,10.9,36,30.26,10.0,Calm,Calm,-,N/A,,Clear,0,2012-12-29 19:53:00
1:53 PM,37.0,12.9,37,30.21,10.0,NNE,9.2,-,N/A,,Clear,20,2012-12-29 20:53:00
2:53 PM,37.9,12.9,36,30.20,10.0,NNE,10.4,-,N/A,,Clear,20,2012-12-29 21:53:00
3:53 PM,34.0,12.0,40,30.23,10.0,North,9.2,-,N/A,,Clear,10,2012-12-29 22:53:00
4:53 PM,32.0,14.0,48,30.26,10.0,Calm,Calm,-,N/A,,Clear,0,2012-12-29 23:53:00
5:53 PM,30.0,14.0,51,30.30,10.0,Calm,Calm,-,N/A,,Clear,0,2012-12-30 00:53:00
6:53 PM,27.0,14.0,58,30.34,10.0,East,5.8,-,N/A,,Clear,80,2012-12-30 01:53:00
7:53 PM,25.0,12.9,60,30.35,10.0,Calm,Calm,-,N/A,,Clear,0,2012-12-30 02:53:00
8:53 PM,21.0,12.0,68,30.28,10.0,Calm,Calm,-,N/A,,Clear,0,2012-12-30 03:53:00
9:53 PM,19.0,10.9,71,30.25,10.0,Calm,Calm,-,N/A,,Clear,0,2012-12-30 04:53:00
10:53 PM,18.0,10.0,71,30.21,10.0,Calm,Calm,-,N/A,,Clear,0,2012-12-30 05:53:00
11:53 PM,16.0,9.0,74,30.19,10.0,Calm,Calm,-,N/A,,Clear,0,2012-12-30 06:53:00